Regional Weather Roundup
Issued by NWS Sterling, VA

Current Version | Previous Version | Text Only | Print | Product List | Glossary On
Versions: 1 2 3 4 5 6 7 8 9 10 11 12 13 14 15 16 17 18 19 20 21 22 23 24 25 26 27 28 29 30 31 32 33 34 35 36 37 38 39 40 41 42 43 44 45 46 47 48 49 50
000
ASUS41 KLWX 011410
RWRLWX

REGIONAL WEATHER ROUNDUP
NATIONAL WEATHER SERVICE BALTIMORE MD/WASHINGTON DC
900 AM EST SUN FEB 01 2015

Note: "FAIR" indicates few or no clouds below 12,000 feet
with no significant weather and/or obstructions to visibility.
 TC=TEMPERATURE CELSIUS

 * =Non NWS site. Station does not report precipitation (e.g. rain,
    snow, etc.), thunder, or fog.

DCZ001-MDZ009-015-VAZ040>042-051-053>054-011500-
WASHINGTON METRO

CITY           SKY/WX    TMP DP  RH WIND       PRES   REMARKS
WASHINGTON NAT CLOUDY    34  17  50 S3        30.30S
DULLES         CLOUDY    31  14  49 S7        30.27F
ANDREWS AFB    PTSUNNY   31  18  58 SW5       30.27S
FT BELVOIR     PTSUNNY   30  18  61 E1        30.29F
QUANTICO       CLOUDY    32  16  51 CALM      30.31S
COLLEGE PARK*  PTSUNNY   30  23  74 CALM      30.28F
LEESBURG*      CLOUDY    32  23  69 CALM      30.26F
MANASSAS*      CLOUDY    28  23  80 CALM      30.30R
GAITHERSBURG*  CLOUDY    30  16  55 CALM      30.29S

$$

MDZ006>007-011-014-011500-
BALTIMORE METRO

CITY           SKY/WX    TMP DP  RH WIND       PRES   REMARKS
BWI AIRPORT    CLOUDY    29  17  61 CALM      30.28S
MD SCIENCE CTR   N/A     31  15  52 MISG      30.28F
ANNAPOLIS      CLOUDY    30  13  49 CALM      30.29R
FORT MEADE*    CLOUDY    28  21  74 CALM      30.31S

$$

MDZ012-015-019>023-011500-
MARYLAND EASTERN SHORE

CITY           SKY/WX    TMP DP  RH WIND       PRES   REMARKS
OCEAN CITY     MOSUNNY   31  17  56 SW6       30.31R
SALISBURY      CLOUDY    30  18  60 S5        30.30F
BAY BRIDGE AP*   N/A     32  25  74 CALM      30.29S
CAMBRIDGE*     MOSUNNY   32  23  69 S5        30.28F
EASTON*        MOSUNNY   30  21  69 CALM      30.32R

$$

MDZ017>025-011500-
SOUTHERN MARYLAND

CITY           SKY/WX    TMP DP  RH WIND       PRES   REMARKS
PATUXENT RIVER PTSUNNY   34  23  64 S6        30.29F
ST INIGOES     NOT AVBL
LEONARDTOWN*   CLOUDY    32  27  80 S5        30.30S

$$

MDZ003>005-011500-
NORTH CENTRAL MARYLAND

CITY           SKY/WX    TMP DP  RH WIND       PRES   REMARKS
FREDERICK*     CLOUDY    30  16  55 CALM      30.29R
HAGERSTOWN APT CLOUDY    30  12  47 S3        30.22S
WESTMINSTER*   NOT AVBL

$$

MDZ501>502-011500-
WESTERN MARYLAND

CITY           SKY/WX    TMP DP  RH WIND       PRES   REMARKS
OAKLAND*       CLOUDY    27 N/A N/A SW9       30.09S HAZE    WCI  17
CUMBERLAND*    CLOUDY    30  23  74 CALM      30.25S

$$

VAZ025>031-011500-
SHENANDOAH VALLEY

CITY           SKY/WX    TMP DP  RH WIND       PRES   REMARKS
WINCHESTER*    CLOUDY    34  14  44 S3        30.22S
FRONT ROYAL*   CLOUDY    30  21  69 CALM      30.22S
LURAY*         CLOUDY    32  25  74 CALM      30.21F
NEW MARKET*    CLOUDY    29  21  70 CALM      30.21F
STAUNTON*      CLOUDY    32  22  68 CALM      30.22F
WAYNESBORO*    CLOUDY    34  13  42 CALM      30.19F

$$

WVZ021-048>050-054>055-011500-
EASTERN WEST VIRGINIA PANHANDLE

CITY           SKY/WX    TMP DP  RH WIND       PRES   REMARKS
MARTINSBURG    CLOUDY    32  16  51 CALM      30.23S
PETERSBURG*    CLOUDY    29  19  65 CALM      30.20F

$$

VAZ036>039-050-011500-
CENTRAL FOOTHILLS

CITY           SKY/WX    TMP DP  RH WIND       PRES   REMARKS
CHARLOTTESVILL CLOUDY    31  11  43 CALM      30.25F
CULPEPER*      PTSUNNY   30  21  69 CALM      30.28S
ORANGE*        CLOUDY    32  18  55 S3        30.28S
GORDONSVILLE*  CLOUDY    31  13  46 CALM      30.26S
WARRENTON*     CLOUDY    32  24  72 CALM      30.26S

$$

VAZ055>057-011500-
NORTH AND CENTRAL PIEDMONT

CITY           SKY/WX    TMP DP  RH WIND       PRES   REMARKS
FREDERICKSBRG* PTSUNNY   31  19  61 CALM      30.28S
STAFFORD*      CLOUDY    30  16  55 CALM      30.32F

$$

NCZ024-NYZ072-PAZ021-071-VAZ022-071-011500-
OTHER REGIONAL OBSERVATIONS

CITY           SKY/WX    TMP DP  RH WIND       PRES   REMARKS
NEW YORK CITY  CLOUDY    28  14  55 CALM      30.24R
PHILADELPHIA   CLOUDY    28  15  58 SW8       30.27S WCI  20
PITTSBURGH     LGT SNOW  27  26  96 S5        30.15F VSB 1
ROANOKE        CLOUDY    37  15  40 CALM      30.24F
RICHMOND       PTSUNNY   33  21  61 SE9       30.27F WCI  25
RALEIGH        PTSUNNY   40  20  44 CALM      30.29R

$$

ANZ530>537-011500-
MARINE OBSERVATIONS

STATION/POSITION TIME  TEMP    WIND        PRES
                       AIR SEA DIR/SP/G
                 (UTC) (F)     (DEG/KT/KT) (MB)
THOMAS PT LIGHT  1400   29 34  270/  5/  6 1026.9R
BALT KEY BRIDGE  1400   28     210/  2/  4 1025.6F
COVE POINT       1400   32     190/ 11/ 12 1025.4F
LEWISETTA        1400   34 34  180/  4/  5 1025.6F
SOLOMONS ISLAND  1400      35                N/A
PINEY POINT      1400          170/  6/  7   N/A

$$



USA.gov is the U.S. government's official web portal to all federal, state and local government web resources and services.